Вернуться в каталог

FENGYUN 1C DEB

АктивенSSO
NORAD 30242·DEBRIS·🇨🇳 China

Запущен May 10, 1999 с Taiyuan Satellite Launch Center

Loading…

Ближайшие Пролёты (ближайшие 24 часа)

TLE

СвежийSource: Space-Track

Эпоха: Sep 14, 2026, 20:14 UTC

1 30242U 99025XB  26257.84312804  .00000646  00000-0  33531-3 0  9992
2 30242  98.6567 290.4720 0010089 343.8407 194.0695 14.18186411 13367

Отслеживайте FENGYUN 1C DEB в реальном времени с AllMySat

Download on the App Store